Regional Weather Roundup
Issued by NWS

Home | Current Version | Previous Version | Graphics & Text | Print | Product List | Glossary On
Versions: 1 2 3 4 5 6 7 8 9 10 11 12 13 14 15 16 17 18 19 20 21 22 23 24 25 26 27 28 29 30 31 32 33 34 35 36 37 38 39 40 41 42 43 44 45 46 47 48 49 50
000
ASUS43 KLMK 040202
RWRKY
KENTUCKY REGIONAL WEATHER ROUNDUP
NATIONAL WEATHER SERVICE LOUISVILLE KY
900 PM EST TUE MAR 03 2015

NOTE "FAIR" INDICATES FEW OR NO CLOUDS BELOW 12,000 FEET
WITH NO SIGNIFICANT WEATHER AND/OR OBSTRUCTIONS TO VISIBILITY.

KYZ001>023-026-027-061>063-070>075-040300-
WESTERN AND SOUTH CENTRAL KENTUCKY

CITY           SKY/WX    TMP DP  RH WIND       PRES   REMARKS
PADUCAH        HVY RAIN  54  53  97 W9        29.87S FOG
HENDERSON      CLOUDY    48  45  87 SW10      29.89R
OWENSBORO      LGT RAIN  50  50 100 NW12      29.88S FOG
HOPKINSVILLE   CLOUDY    60  59  94 SW8       29.87F
BOWLING GREEN  CLOUDY    61  58  90 S12       29.88F
GLASGOW        NOT AVBL
$$

KYZ024-025-028>034-038-045-046-053-040300-
NORTH CENTRAL KENTUCKY

CITY           SKY/WX    TMP DP  RH WIND       PRES   REMARKS
LOUISVILLE/SDF CLOUDY    54  50  86 W14       29.85S
LOUISVILLE/LOU CLOUDY    54  50  86 W13G23    29.85S
FORT KNOX      LGT RAIN  54  53  94 W14G21    29.84R
$$

KYZ035>037-039>044-047>052-055>060-089>105-040300-
NORTHEAST KENTUCKY

CITY           SKY/WX    TMP DP  RH WIND       PRES   REMARKS
LEXINGTON      CLOUDY    60  56  86 SW17G23   29.82F
COVINGTON      LGT RAIN  46  44  93 W10       29.84R FOG
FRANKFORT      LGT RAIN  56  54  93 NW12G21   29.83R FOG
$$

KYZ054-064>069-076>088-106>120-040300-
SOUTHEAST KENTUCKY

CITY           SKY/WX    TMP DP  RH WIND       PRES   REMARKS
JACKSON        CLOUDY    59  55  87 VRB6      29.89R
LONDON         LGT RAIN  58  52  80 S8        29.91F
SOMERSET       NOT AVBL
MIDDLESBORO    NOT AVBL
MONTICELLO     CLOUDY    61  60  96 S10       29.94F FOG
$$




USA.gov is the U.S. government's official web portal to all federal, state and local government web resources and services.